sat.trackr.live / text

‹ back to catalog

HULIANWANG DIGUI-18

NORAD 62978 · 2025-030H

PAYLOAD ACTIVE UNKNOWN

§ Identity

Operator
Country
PRC
Launch date
2025-02-11
Launch site
WSC
Launch vehicle
Mass (kg)
RCS (m²)

External: N2YO · Heavens-Above · Gunter

§ Orbital elements

Epoch: 2026-05-25T00:31:02.785728Z

Period
108.33 min
Inclination
50.0076°
Eccentricity
0.0001274
Mean motion
13.29324317 rev/d
Perigee alt
1,148.4 km
Apogee alt
1,150.3 km
Semi-major
7,527.4 km
B*
5.9182e-5
RAAN
318.6110°
Arg perigee
92.2854°
Mean anomaly
267.8164°
Rev number
6,278

§ Raw data

HULIANWANG DIGUI-181 62978U 25030H   26145.02156002 -.00000097  00000+0  59182-4 0  99912 62978  50.0076 318.6110 0001274  92.2854 267.8164 13.29324317 62788

JSON: /api/v1/satellites/62978 · /tle

For live sub-satellite position, see the globe view (requires WebGL).

§ Visibility from observer

Set your observer location to see the next 7 days of passes ≥ 10°. The values pass through the URL so the page stays shareable.

No JS? Fill the form by hand. The geolocation button needs JavaScript.